TimeCST,TemperatureF,Dew PointF,Humidity,Sea Level PressureIn,VisibilityMPH,Wind Direction,Wind SpeedMPH,Gust SpeedMPH,PrecipitationIn,Events,Conditions,WindDirDegrees,DateUTC
12:15 AM,46.4,44.6,93,30.12,10.0,Calm,Calm,-,N/A,,Clear,0,2012-11-07 06:15:00
12:35 AM,46.4,44.6,93,30.13,10.0,Calm,Calm,-,N/A,,Clear,0,2012-11-07 06:35:00
12:55 AM,46.4,44.6,93,30.13,10.0,Calm,Calm,-,N/A,,Clear,0,2012-11-07 06:55:00
1:15 AM,46.4,44.6,93,30.13,10.0,Calm,Calm,-,N/A,,Clear,0,2012-11-07 07:15:00
1:35 AM,46.4,44.6,93,30.14,10.0,Calm,Calm,-,N/A,,Clear,0,2012-11-07 07:35:00
1:55 AM,48.2,44.6,87,30.14,10.0,Calm,Calm,-,N/A,,Clear,0,2012-11-07 07:55:00
2:15 AM,50.0,44.6,82,30.15,10.0,Calm,Calm,-,N/A,,Clear,0,2012-11-07 08:15:00
2:35 AM,48.2,44.6,87,30.15,10.0,Calm,Calm,-,N/A,,Clear,0,2012-11-07 08:35:00
2:55 AM,48.2,44.6,87,30.14,10.0,Calm,Calm,-,N/A,,Clear,0,2012-11-07 08:55:00
3:15 AM,46.4,44.6,93,30.14,10.0,Calm,Calm,-,N/A,,Clear,0,2012-11-07 09:15:00
3:35 AM,46.4,44.6,93,30.13,10.0,Calm,Calm,-,N/A,,Clear,0,2012-11-07 09:35:00
3:55 AM,46.4,42.8,87,30.13,10.0,Calm,Calm,-,N/A,,Clear,0,2012-11-07 09:55:00
4:15 AM,44.6,42.8,93,30.13,10.0,Calm,Calm,-,N/A,,Clear,0,2012-11-07 10:15:00
4:35 AM,44.6,42.8,93,30.13,10.0,Calm,Calm,-,N/A,,Clear,0,2012-11-07 10:35:00
4:55 AM,42.8,41.0,93,30.13,10.0,Calm,Calm,-,N/A,,Clear,0,2012-11-07 10:55:00
5:15 AM,42.8,41.0,93,30.15,10.0,Calm,Calm,-,N/A,,Clear,0,2012-11-07 11:15:00
5:35 AM,44.6,42.8,93,30.15,10.0,Calm,Calm,-,N/A,,Clear,0,2012-11-07 11:35:00
5:55 AM,44.6,42.8,93,30.14,10.0,Calm,Calm,-,N/A,,Clear,0,2012-11-07 11:55:00
6:15 AM,42.8,42.8,100,30.15,10.0,Calm,Calm,-,N/A,,Clear,0,2012-11-07 12:15:00
6:35 AM,42.8,42.8,100,30.16,10.0,Calm,Calm,-,N/A,,Clear,0,2012-11-07 12:35:00
7:15 AM,44.6,42.8,93,30.18,9.0,Calm,Calm,-,N/A,,Clear,0,2012-11-07 13:15:00
7:35 AM,46.4,44.6,93,30.19,10.0,Calm,Calm,-,N/A,,Clear,0,2012-11-07 13:35:00
7:55 AM,50.0,44.6,82,30.20,10.0,Calm,Calm,-,N/A,,Clear,0,2012-11-07 13:55:00
8:15 AM,53.6,44.6,72,30.20,10.0,Calm,Calm,-,N/A,,Clear,0,2012-11-07 14:15:00
8:35 AM,53.6,46.4,77,30.20,10.0,Calm,Calm,-,N/A,,Clear,0,2012-11-07 14:35:00
8:55 AM,57.2,48.2,72,30.21,10.0,NW,4.6,-,N/A,,Clear,320,2012-11-07 14:55:00
9:15 AM,59.0,44.6,59,30.21,10.0,Calm,Calm,-,N/A,,Clear,0,2012-11-07 15:15:00
9:35 AM,60.8,39.2,45,30.21,10.0,NNW,3.5,-,N/A,,Clear,340,2012-11-07 15:35:00
9:55 AM,62.6,37.4,39,30.21,10.0,Calm,Calm,-,N/A,,Clear,0,2012-11-07 15:55:00
10:15 AM,62.6,37.4,39,30.20,10.0,Calm,Calm,-,N/A,,Clear,0,2012-11-07 16:15:00
10:35 AM,64.4,37.4,37,30.20,10.0,Calm,Calm,-,N/A,,Clear,0,2012-11-07 16:35:00
10:55 AM,64.4,35.6,34,30.19,10.0,Calm,Calm,-,N/A,,Clear,0,2012-11-07 16:55:00
11:15 AM,66.2,32.0,28,30.19,10.0,Calm,Calm,-,N/A,,Clear,0,2012-11-07 17:15:00
11:35 AM,66.2,32.0,28,30.18,10.0,Calm,Calm,-,N/A,,Clear,0,2012-11-07 17:35:00
11:55 AM,68.0,32.0,26,30.17,10.0,NNW,3.5,-,N/A,,Clear,330,2012-11-07 17:55:00
12:15 PM,68.0,33.8,28,30.16,10.0,NNW,3.5,-,N/A,,Clear,330,2012-11-07 18:15:00
12:35 PM,69.8,33.8,27,30.15,7.0,North,3.5,-,N/A,,Clear,360,2012-11-07 18:35:00
12:55 PM,69.8,35.6,28,30.13,5.0,Calm,Calm,-,N/A,,Haze,0,2012-11-07 18:55:00
1:15 PM,69.8,33.8,27,30.13,10.0,Calm,Calm,-,N/A,,Clear,0,2012-11-07 19:15:00
1:35 PM,71.6,32.0,23,30.12,10.0,WNW,4.6,-,N/A,,Clear,290,2012-11-07 19:35:00
1:55 PM,71.6,32.0,23,30.12,10.0,NNW,5.8,-,N/A,,Clear,340,2012-11-07 19:55:00
2:15 PM,71.6,32.0,23,30.12,10.0,NNW,5.8,-,N/A,,Clear,340,2012-11-07 20:15:00
2:35 PM,71.6,32.0,23,30.11,10.0,WNW,5.8,-,N/A,,Clear,300,2012-11-07 20:35:00
2:55 PM,71.6,32.0,23,30.11,10.0,Calm,Calm,-,N/A,,Clear,0,2012-11-07 20:55:00
3:15 PM,71.6,32.0,23,30.11,10.0,WNW,5.8,-,N/A,,Clear,290,2012-11-07 21:15:00
3:35 PM,71.6,32.0,23,30.11,10.0,West,4.6,-,N/A,,Clear,280,2012-11-07 21:35:00
3:55 PM,71.6,33.8,25,30.11,10.0,Calm,Calm,-,N/A,,Clear,0,2012-11-07 21:55:00
4:15 PM,71.6,32.0,23,30.11,10.0,Calm,Calm,-,N/A,,Clear,0,2012-11-07 22:15:00
4:35 PM,71.6,33.8,25,30.11,10.0,Calm,Calm,-,N/A,,Clear,0,2012-11-07 22:35:00
4:55 PM,69.8,35.6,28,30.11,10.0,Calm,Calm,-,N/A,,Clear,0,2012-11-07 22:55:00
5:15 PM,62.6,39.2,42,30.11,10.0,Calm,Calm,-,N/A,,Clear,0,2012-11-07 23:15:00
5:35 PM,59.0,42.8,55,30.11,9.0,Calm,Calm,-,N/A,,Clear,0,2012-11-07 23:35:00
5:55 PM,57.2,42.8,59,30.11,9.0,Calm,Calm,-,N/A,,Clear,0,2012-11-07 23:55:00
6:15 PM,55.4,42.8,63,30.12,10.0,Calm,Calm,-,N/A,,Clear,0,2012-11-08 00:15:00
6:35 PM,53.6,42.8,67,30.12,8.0,Calm,Calm,-,N/A,,Clear,0,2012-11-08 00:35:00
6:55 PM,53.6,42.8,67,30.12,10.0,Calm,Calm,-,N/A,,Clear,0,2012-11-08 00:55:00
7:15 PM,51.8,42.8,71,30.12,10.0,Calm,Calm,-,N/A,,Clear,0,2012-11-08 01:15:00
7:35 PM,51.8,42.8,71,30.12,10.0,Calm,Calm,-,N/A,,Clear,0,2012-11-08 01:35:00
7:55 PM,51.8,42.8,71,30.12,10.0,Calm,Calm,-,N/A,,Clear,0,2012-11-08 01:55:00
8:15 PM,50.0,42.8,76,30.13,10.0,Calm,Calm,-,N/A,,Clear,0,2012-11-08 02:15:00
8:35 PM,48.2,42.8,82,30.13,10.0,Calm,Calm,-,N/A,,Clear,0,2012-11-08 02:35:00
8:55 PM,48.2,42.8,82,30.14,7.0,Calm,Calm,-,N/A,,Clear,0,2012-11-08 02:55:00
9:15 PM,48.2,42.8,82,30.14,10.0,Calm,Calm,-,N/A,,Clear,0,2012-11-08 03:15:00
9:35 PM,48.2,42.8,82,30.14,10.0,Calm,Calm,-,N/A,,Clear,0,2012-11-08 03:35:00
9:55 PM,48.2,42.8,82,30.14,6.0,Calm,Calm,-,N/A,,Haze,0,2012-11-08 03:55:00
10:15 PM,48.2,42.8,82,30.14,9.0,Calm,Calm,-,N/A,,Clear,0,2012-11-08 04:15:00
10:35 PM,46.4,42.8,87,30.14,9.0,Calm,Calm,-,N/A,,Clear,0,2012-11-08 04:35:00
10:55 PM,46.4,42.8,87,30.13,10.0,Calm,Calm,-,N/A,,Clear,0,2012-11-08 04:55:00
11:15 PM,46.4,42.8,87,30.13,10.0,Calm,Calm,-,N/A,,Clear,0,2012-11-08 05:15:00
11:35 PM,44.6,42.8,93,30.13,10.0,Calm,Calm,-,N/A,,Clear,0,2012-11-08 05:35:00
11:55 PM,44.6,42.8,93,30.13,10.0,Calm,Calm,-,N/A,,Clear,0,2012-11-08 05:55:00